Shreveport, LA

9:37 AM CST on November 23, 2017 (GMT -0600)
Shreveport Regional

Weather History for KSHV - June, 2012

Change the Weather History Date:

Saturday, June 9, 2012

  Actual Average Record
Temperature  
Mean Temperature 82 °F 79 °F  
Max Temperature 93 °F 89 °F 100 °F (1911)
Min Temperature 70 °F 68 °F 55 °F (1977)
Degree Days  
Heating Degree Days 0 0  
Month to date heating degree days 0 0  
Since 1 June heating degree days 0 0  
Since 1 July heating degree days 1535 2226  
Cooling Degree Days 17 14  
Month to date cooling degree days 147 117  
Year to date cooling degree days 843 515  
Since 1 June cooling degree days 147 117  
Growing Degree Days 32 (Base 50)    
Moisture  
Dew Point 67 °F    
Average Humidity 66    
Maximum Humidity 93    
Minimum Humidity 39    
Precipitation  
Precipitation 0.00 in 0.18 in 5.00 in (1986)
Month to date precipitation 0.02 1.52  
Year to date precipitation 19.21 23.73  
Snow  
Snow 0.00 in - - ()
Month to date snowfall 0.0  
Since 1 June snowfall 0.0  
Since 1 July snowfall T  
Snow Depth 0.00 in    
Sea Level Pressure  
Sea Level Pressure 29.82 in    
Wind  
Wind Speed 4 mph (ESE)    
Max Wind Speed 16 mph    
Max Gust Speed 22 mph    
Visibility 10 miles    
Events      
T = Trace of Precipitation, MM = Missing Value Source: NWS Daily Summary

Daily Weather History Graph

Daily Weather History Graph

Search for Another Location

Airport or City:

Trip Planner

Search our weather history database for the weather conditions in past years. The results will help you decide how hot, cold, wet, or windy it might be!

Date:

Astronomy

Jun. 09, 2012 Rise Set
Actual Time 6:07 AM CDT 8:21 PM CDT
Civil Twilight 5:39 AM CDT 8:50 PM CDT
Nautical Twilight 5:04 AM CDT 9:24 PM CDT
Astronomical Twilight 4:27 AM CDT 10:02 PM CDT
Moon No Moon Rise 11:38 AM CDT (6/9)
Length of Visible Light 15h 11m
Length of Day
14h 14m
Waning Gibbous, 68% of the Moon is Illuminated
Jun 9
Waning Gibbous
Jun 11
Last Quarter
Jun 19
New
Jun 26
First Quarter
Jul 3
Full

Hourly Weather History & Observations

Time (CDT) Temp. Heat Index Dew Point Humidity Pressure Visibility Wind Dir Wind Speed Gust Speed Precip Events Conditions
12:56 AM 75.0 °F - 68.0 °F 79% 29.87 in 10.0 mi Calm Calm - N/A   Mostly Cloudy
1:56 AM 73.9 °F - 68.0 °F 82% 29.86 in 10.0 mi Calm Calm - N/A   Mostly Cloudy
2:56 AM 71.6 °F - 68.0 °F 88% 29.85 in 10.0 mi Calm Calm - N/A   Mostly Cloudy
3:56 AM 72.0 °F - 68.0 °F 87% 29.85 in 10.0 mi Calm Calm - N/A   Scattered Clouds
4:56 AM 69.8 °F - 66.2 °F 88% 29.86 in 10.0 mi SE 3.5 mph - N/A   Scattered Clouds
5:56 AM 71.1 °F - 68.0 °F 90% 29.86 in 10.0 mi Calm Calm - N/A   Scattered Clouds
6:56 AM 71.1 °F - 69.1 °F 93% 29.87 in 10.0 mi Calm Calm - N/A   Scattered Clouds
7:56 AM 73.9 °F - 70.0 °F 87% 29.88 in 10.0 mi Calm Calm - N/A   Mostly Cloudy
8:56 AM 78.1 °F - 69.1 °F 74% 29.88 in 8.0 mi East 4.6 mph - N/A   Mostly Cloudy
9:56 AM 81.0 °F 83.8 °F 68.0 °F 65% 29.88 in 10.0 mi Calm Calm - N/A   Mostly Cloudy
10:56 AM 84.9 °F 88.2 °F 68.0 °F 57% 29.87 in 10.0 mi North 4.6 mph - N/A   Scattered Clouds
11:56 AM 86.0 °F 89.4 °F 68.0 °F 55% 29.85 in 10.0 mi East 5.8 mph - N/A   Scattered Clouds
12:56 PM 90.0 °F 93.6 °F 68.0 °F 48% 29.83 in 10.0 mi Calm Calm - N/A   Scattered Clouds
1:56 PM 90.0 °F 91.7 °F 64.9 °F 43% 29.80 in 10.0 mi Variable 5.8 mph - N/A   Scattered Clouds
2:56 PM 91.0 °F 93.0 °F 64.9 °F 42% 29.78 in 10.0 mi Variable 6.9 mph - N/A   Scattered Clouds
3:56 PM 93.0 °F 94.6 °F 64.0 °F 38% 29.76 in 10.0 mi NNE 4.6 mph 17.3 mph N/A   Scattered Clouds
4:56 PM 91.0 °F 93.0 °F 64.9 °F 42% 29.74 in 10.0 mi SE 8.1 mph - N/A   Scattered Clouds
5:56 PM 91.0 °F 93.0 °F 64.9 °F 42% 29.73 in 10.0 mi East 8.1 mph - N/A   Scattered Clouds
6:56 PM 90.0 °F 91.7 °F 64.9 °F 43% 29.73 in 10.0 mi SE 9.2 mph - N/A   Scattered Clouds
7:56 PM 87.1 °F 88.9 °F 64.9 °F 48% 29.73 in 10.0 mi SE 4.6 mph - N/A   Scattered Clouds
8:56 PM 84.9 °F 87.1 °F 66.0 °F 53% 29.75 in 10.0 mi SE 6.9 mph - N/A   Mostly Cloudy
9:56 PM 81.0 °F 84.4 °F 70.0 °F 69% 29.77 in 10.0 mi SE 12.7 mph - N/A   Mostly Cloudy
10:56 PM 79.0 °F - 70.0 °F 74% 29.79 in 10.0 mi SE 8.1 mph - N/A   Mostly Cloudy
11:56 PM 78.1 °F - 70.0 °F 76% 29.80 in 10.0 mi SE 6.9 mph - N/A   Mostly Cloudy